Flag for Germany Weather past 2 weeks in Schleswig, Schleswig-Holstein, Germany

Now
61 °F

Passing clouds.


Feels Like: 61 °F
Forecast: 62 / 87 °F
Wind: 2 mph from East

Location: Schleswig

Current Time: Jul 3, 2015 at 5:43:49 AM

Latest Report: Jul 3, 2015 at 4:00 AM


Visibility: 13 mi

Pressure: 30.23 "Hg

Humidity: 86%

Dew point: 57 °F

Location of SchleswigLocation

Historic Weather in Schleswig — Graph

°F

Schleswig temperature yesterday

Maximum temperature yesterday: 82 °F (at 2:00 PM)
Minimum temperature yesterday: 62 °F (at 4:00 AM)
Average temperature yesterday: 72 °F

Past Weeks' High & Low Weather Summary

 TemperatureHumidityPressure
High82 °F (Jul 2, 2:00 PM)99% (Jun 18, 4:00 AM)30.26 "Hg (Jun 18, 4:00 AM)
Low48 °F (Jun 20, 6:00 AM)43% (Jul 2, 1:00 PM)29.65 "Hg (Jun 22, 9:00 PM)
Average59 °F79%30.02 "Hg
* Reported Jun 18 4:00 AM — Jul 3 4:00 AM, Schleswig, Weather by CustomWeather, © 2015

Note: Actual official high and low records may vary slightly from our data, if they occured in-between our weather recording intervals... More about our weather records

Advertising

Schleswig weather history for previous 24 hours

 ConditionsComfort  
Time TempWeatherWind HumidityBarometerVisibility
4:00 AM
Fri, Jul 3
61 °FPassing clouds.2 mph86%30.23 "Hg12 mi
3:00 AM61 °FPassing clouds.2 mph87%30.23 "Hg16 mi
2:00 AM62 °FPassing clouds.2 mph86%30.22 "Hg16 mi
1:00 AM64 °FPassing clouds.2 mph80%30.20 "Hg16 mi
12:00 AM66 °FPassing clouds.3 mph77%30.20 "Hg16 mi
10:00 PM
Thu, Jul 2
69 °FPassing clouds.5 mph72%30.19 "Hg16 mi
9:00 PM71 °FPassing clouds.7 mph68%30.18 "Hg12 mi
8:00 PM73 °FSunny.7 mph64%30.18 "Hg16 mi
7:00 PM75 °FSunny.8 mph59%30.19 "Hg16 mi
6:00 PM77 °FSunny.7 mph54%30.19 "Hg16 mi
5:00 PM79 °FSunny.8 mph50%30.19 "Hg16 mi
4:00 PM80 °FSunny.7 mph48%30.19 "Hg16 mi
3:00 PM80 °FSunny.7 mph48%30.20 "Hg16 mi
2:00 PM82 °FSunny.6 mph43%30.20 "Hg16 mi
1:00 PM81 °FSunny.7 mph43%30.20 "Hg12 mi
12:00 PM79 °FSunny.7 mph45%30.22 "Hg12 mi
11:00 AM78 °FSunny.6 mph51%30.22 "Hg12 mi
10:00 AM74 °FSunny.5 mph55%30.22 "Hg12 mi
9:00 AM71 °FSunny.6 mph61%30.22 "Hg12 mi
8:00 AM68 °FSunny.5 mph71%30.23 "Hg12 mi
7:00 AM64 °FPassing clouds.3 mph82%30.23 "Hg19 mi
6:00 AM62 °FPassing clouds.3 mph85%30.22 "Hg19 mi
Weather by CustomWeather, © 2015

See weather overviewHow to use our weather pages